Weather History for State College, PA

Change the Weather History Date:

Thursday, January 24, 2013

  Actual Average Record
Temperature  
Mean Temperature 13 °F -  
Max Temperature 21 °F 35 °F 63 °F (1967)
Min Temperature 5 °F 19 °F -15 °F (1963)
Degree Days  
Heating Degree Days 52    
Moisture  
Dew Point 1 °F    
Average Humidity 66    
Maximum Humidity 85    
Minimum Humidity 36    
Precipitation  
Precipitation 0.00 in - - ()
Sea Level Pressure  
Sea Level Pressure 30.21 in    
Wind  
Wind Speed 2 mph (NW)    
Max Wind Speed 17 mph    
Max Gust Speed 28 mph    
Visibility 8 miles    
Events Snow    
Averages and records for this station are not official NWS values.
T = Trace of Precipitation, MM = Missing Value Source: NWS Daily Summary

Daily Weather History Graph

Daily Weather History Graph

Search for Another Location

Airport:

Trip Planner

Search our weather history database for the weather conditions in past years. The results will help you decide how hot, cold, wet, or windy it might be!

Date:

Astronomy

Jan. 24, 2013 Rise Set
Actual Time 7:28 AM EST 5:19 PM EST
Civil Twilight 6:58 AM EST 5:48 PM EST
Nautical Twilight 6:25 AM EST 6:22 PM EST
Astronomical Twilight 5:52 AM EST 6:54 PM EST
Moon 3:19 PM EST (1/24) 5:24 AM EST (1/24)
Length of Visible Light 10h 50m
Length of Day
9h 50m
Waxing Gibbous, 94% of the Moon is Illuminated
Jan 24
Waxing Gibbous
Jan 26
Full
Feb 3
Last Quarter
Feb 10
New
Feb 17
First Quarter

Hourly Weather History & Observations

Time (EST) Temp. Windchill Dew Point Humidity Pressure Visibility Wind Dir Wind Speed Gust Speed Precip Events Conditions
12:15 AM 6.3 °F - 0.3 °F 77% 30.04 in 10.0 mi Calm Calm - N/A   Mostly Cloudy
12:35 AM 6.8 °F - 0.5 °F 75% 30.03 in 10.0 mi Calm Calm - N/A   Overcast
12:55 AM 6.3 °F - 0.7 °F 78% 30.02 in 10.0 mi Calm Calm - N/A   Overcast
1:15 AM 6.1 °F - 0.5 °F 78% 30.02 in 10.0 mi Calm Calm - N/A   Mostly Cloudy
1:35 AM 5.9 °F - 0.7 °F 79% 30.02 in 10.0 mi Calm Calm - N/A   Mostly Cloudy
1:55 AM 5.9 °F - 1.6 °F 82% 30.02 in 10.0 mi Calm Calm - N/A   Overcast
2:15 AM 6.3 °F - 1.6 °F 81% 30.02 in 5.0 mi Calm Calm - N/A   Haze
2:35 AM 6.4 °F - 1.9 °F 82% 30.03 in 4.0 mi Calm Calm - N/A   Overcast
2:55 AM 7.3 °F - 3.0 °F 82% 30.03 in 5.0 mi Calm Calm - N/A   Overcast
3:15 AM 7.7 °F - 3.2 °F 82% 30.04 in 4.0 mi Calm Calm - N/A Snow Light Snow
3:35 AM 7.7 °F - 3.6 °F 83% 30.04 in 3.0 mi Calm Calm - N/A Snow Light Snow
3:55 AM 7.7 °F - 3.9 °F 85% 30.05 in 2.0 mi Calm Calm - N/A Snow Light Snow
4:15 AM 7.7 °F - 3.7 °F 84% 30.06 in 2.0 mi Calm Calm - N/A Snow Light Snow
4:35 AM 7.9 °F - 4.1 °F 85% 30.06 in 2.0 mi Calm Calm - N/A Snow Light Snow
4:55 AM 8.2 °F - 4.1 °F 83% 30.08 in 2.5 mi Calm Calm - N/A Snow Light Snow
5:15 AM 8.6 °F - 4.6 °F 84% 30.08 in 2.0 mi Calm Calm - N/A Snow Light Snow
5:53 AM 8.6 °F - 5.0 °F 85% 30.11 in 2.0 mi Calm Calm - N/A Snow Light Snow
6:53 AM 8.6 °F - 5.0 °F 85% 30.13 in 5.0 mi Calm Calm - N/A Snow Light Snow
7:15 AM 6.8 °F - 3.2 °F 85% 30.14 in 7.0 mi Calm Calm - N/A   Overcast
7:53 AM 6.8 °F - 3.2 °F 85% 30.16 in 10.0 mi Calm Calm - N/A   Mostly Cloudy
8:23 AM 8.6 °F - 5.0 °F 85% 30.19 in 10.0 mi Calm Calm - N/A   Scattered Clouds
8:53 AM 10.4 °F -0.4 °F 3.2 °F 73% 30.21 in 10.0 mi West 6.9 mph - N/A   Scattered Clouds
9:53 AM 12.2 °F 2.9 °F 1.4 °F 62% 30.26 in 10.0 mi NW 5.8 mph - N/A   Scattered Clouds
10:53 AM 15.8 °F 4.2 °F 1.4 °F 53% 30.29 in 10.0 mi NNW 9.2 mph - N/A   Partly Cloudy
11:53 AM 17.6 °F 5.0 °F 1.4 °F 49% 30.30 in 10.0 mi NNW 11.5 mph - N/A   Scattered Clouds
12:53 PM 21.2 °F 6.8 °F -2.2 °F 36% 30.30 in 10.0 mi NW 17.3 mph - N/A   Mostly Cloudy
1:53 PM 19.4 °F 6.0 °F -2.2 °F 39% 30.29 in 10.0 mi NW 13.8 mph 25.3 mph N/A   Mostly Cloudy
2:53 PM 19.4 °F 6.0 °F -0.4 °F 42% 30.31 in 10.0 mi NW 13.8 mph 27.6 mph N/A   Mostly Cloudy
3:53 PM 19.4 °F 6.0 °F -4.0 °F 36% 30.34 in 10.0 mi NNW 13.8 mph 23.0 mph N/A   Mostly Cloudy
4:53 PM 17.6 °F 5.0 °F -0.4 °F 45% 30.36 in 10.0 mi WNW 11.5 mph 23.0 mph N/A   Scattered Clouds
5:53 PM 17.6 °F 9.3 °F -4.0 °F 38% 30.39 in 10.0 mi NW 5.8 mph - N/A   Clear
6:53 PM 15.8 °F 7.2 °F -5.8 °F 38% 30.42 in 10.0 mi NW 5.8 mph 17.3 mph N/A   Clear
7:53 PM 14.0 °F 0.5 °F -4.0 °F 45% 30.43 in 10.0 mi NNW 11.5 mph - N/A   Clear
9:55 PM 12.0 °F 4.1 °F -3.3 °F 50% 30.43 in 10.0 mi NW 4.6 mph - N/A   Clear
10:15 PM 11.3 °F 3.3 °F -3.1 °F 52% 30.43 in 10.0 mi NW 4.6 mph - N/A   Clear
10:35 PM 11.3 °F -2.2 °F -3.1 °F 52% 30.43 in 10.0 mi NW 10.4 mph - N/A   Clear
10:55 PM 11.1 °F 4.9 °F -3.1 °F 53% 30.43 in 10.0 mi WNW 3.5 mph - N/A   Clear
11:15 PM 10.4 °F 0.8 °F -2.9 °F 55% 30.44 in 10.0 mi West 5.8 mph - N/A   Clear
11:35 PM 10.2 °F 2.0 °F -2.4 °F 57% 30.43 in 10.0 mi West 4.6 mph - N/A   Clear
11:55 PM 10.0 °F - -2.7 °F 56% 30.43 in 10.0 mi Calm Calm - N/A   Clear